Theta_e
301 300 296 297 298 299 299 298 297 300 305 305 302 304 307 313 314 314 315 319 321 323 327 329 333 333 332 329 328 326 329 326 325 332 329 329 328 329 330 330 331 330 329 328
299 296 301 302 302 302 300 297 296 303 307 305 302 301 306 309 310 313 316 318 320 322 323 326 327 329 327 326 327 325 323 323 322 331 332 331 331 330 329 325 321 322 323 326
296 300 303 303 302 302 297 297 296 302 303 303 301 300 301 306 308 317 318 318 321 322 322 325 327 323 321 321 323 323 323 324 326 323 329 330 330 327 321 321 320 321 321 319
298 302 302 301 301 301 297 303 302 302 297 294 300 290 298 301 306 313 315 316 320 322 324 325 323 320 321 323 325 323 326 326 328 323 324 325 322 317 318 318 319 318 318 318
298 302 303 302 301 303 301 304 302 301 297 296 298 293 296 300 301 307 313 319 321 322 322 323 323 324 326 324 323 324 324 325 324 326 323 321 317 317 317 316 314 314 315 316
302 306 305 304 307 306 306 301 299 297 295 291 294 294 294 296 300 306 313 317 319 320 322 323 322 321 321 321 321 322 322 319 320 319 318 316 314 313 312 311 310 311 312 313
302 303 307 310 302 305 300 295 289 290 289 289 295 294 294 301 305 309 310 313 315 316 315 316 315 315 317 317 318 319 316 314 315 315 315 314 312 310 308 308 308 307 307 307
295 295 305 310 304 299 299 295 290 286 287 290 296 290 295 306 309 311 312 313 314 314 314 315 315 314 313 314 314 314 313 313 313 312 310 310 309 308 308 307 306 305 305 306
297 298 307 310 308 304 300 297 298 292 290 289 291 296 302 306 307 308 309 310 309 311 312 312 313 313 314 313 312 313 312 311 310 310 309 308 308 307 306 306 306 305 305 307
302 296 306 309 307 307 302 304 294 292 286 285 290 291 292 301 303 306 307 308 307 310 311 312 312 313 313 312 312 312 310 309 309 308 307 307 306 306 305 304 304 304 304 305
302 299 300 304 302 299 299 298 296 294 291 287 286 290 299 301 304 304 306 308 308 310 310 311 312 312 312 312 310 309 309 309 307 307 306 305 305 305 304 304 303 304 304 305
304 300 296 298 304 307 302 298 295 291 290 290 290 291 305 304 305 307 307 310 308 309 310 310 310 312 312 311 310 309 309 308 307 306 305 304 304 303 303 303 304 305 305 305
305 297 293 296 298 301 300 302 298 295 294 291 290 292 306 307 307 309 308 308 307 309 309 308 308 309 311 312 311 310 309 308 307 306 304 303 303 303 302 304 304 305 305 305
308 297 295 292 293 298 298 301 301 297 291 293 294 296 302 305 306 307 307 307 306 306 307 308 308 309 310 312 310 309 308 307 306 305 304 303 303 303 303 304 305 305 305 305
301 297 297 298 302 304 302 302 302 298 297 294 297 299 302 305 307 306 308 306 306 305 307 309 310 309 310 310 309 309 308 307 306 305 304 303 304 304 305 305 305 305 305 305
303 299 298 299 303 303 300 302 302 303 302 301 300 299 305 307 308 308 307 306 305 305 306 310 311 310 309 309 309 309 307 306 306 305 304 305 305 305 305 305 305 305 305 304
301 298 294 294 300 299 295 302 302 303 303 303 298 302 307 306 307 307 307 306 305 304 306 310 311 309 309 308 309 307 307 307 305 304 305 306 305 305 305 305 304 304 304 304
301 298 295 293 294 287 297 308 309 305 307 306 305 306 308 307 308 309 308 306 305 305 307 311 311 310 309 309 308 308 308 306 305 305 304 305 305 304 304 304 304 304 304 304
303 299 295 292 291 297 303 306 304 302 302 308 306 307 308 309 309 307 310 308 306 306 308 310 311 309 309 308 309 308 306 305 305 304 304 305 304 304 304 303 303 304 304 304
304 301 298 293 291 290 299 308 312 308 296 309 309 308 307 308 301 303 310 308 307 309 311 312 311 310 308 308 308 306 305 304 304 305 304 305 305 304 303 303 304 303 304 305
297 296 294 291 291 296 304 311 311 295 296 309 311 309 308 306 306 308 308 308 309 309 312 312 311 309 308 308 307 305 304 305 306 306 306 305 304 303 303 302 303 303 303 305
298 295 293 293 291 291 309 309 301 304 305 311 311 310 309 309 308 307 307 307 308 309 312 312 310 309 309 309 307 305 304 306 307 305 304 303 303 302 302 300 301 302 302 302
298 300 298 298 297 303 308 305 309 310 310 311 311 310 310 308 307 306 306 306 307 308 311 312 310 308 308 309 308 305 307 307 305 303 302 303 303 304 301 301 300 300 301 300
301 304 299 300 301 304 307 310 312 313 313 313 312 310 311 308 307 307 306 304 305 308 310 311 308 307 308 308 309 306 308 308 305 303 303 303 302 303 303 303 301 300 300 300
302 302 299 299 302 306 309 312 313 314 313 312 312 311 310 308 307 307 304 304 306 308 309 310 309 308 308 309 308 307 308 306 304 303 303 302 302 302 303 304 303 302 300 299
301 301 299 299 305 304 305 311 315 313 312 312 311 310 310 309 306 306 304 305 307 309 309 309 309 308 309 309 308 308 309 307 306 304 302 302 302 302 303 303 304 296 293 292
Wind_Speed
4 7 1 4 3 3 3 2 5 2 4 9 4 7 9 8 9 9 5 4 7 5 2 1 6 3 3 5 10 8 8 7 6 3 4 4 4 3 2 3 5 6 5 4
8 1 4 3 6 7 4 6 4 3 3 12 12 12 6 8 4 7 4 3 6 4 2 3 1 3 8 8 7 7 6 7 4 3 3 3 3 1 2 3 8 9 8 6
4 4 3 4 6 7 2 1 4 10 1 6 5 14 10 7 9 12 11 5 4 5 3 4 7 8 7 4 3 6 6 6 4 3 2 2 1 2 4 4 3 5 7 6
3 7 5 9 5 5 4 6 5 9 4 2 2 2 7 9 8 14 11 6 4 2 3 4 8 8 8 8 8 8 7 6 4 5 2 6 3 3 2 1 3 4 5 5
4 7 8 7 2 2 2 7 6 5 6 5 11 7 8 6 9 8 10 5 4 5 7 8 7 6 8 8 7 7 8 7 4 9 10 6 5 3 3 3 5 5 5 6
3 3 5 2 3 3 6 5 9 5 3 6 7 5 6 5 6 6 6 7 7 6 4 3 4 4 5 6 7 7 11 15 13 12 11 9 8 5 4 5 5 4 3 3
8 5 5 6 4 6 4 8 4 6 7 4 3 6 5 6 5 3 6 7 6 5 6 7 8 8 10 12 11 10 12 12 10 10 9 8 7 7 6 4 3 5 5 3
3 6 6 9 3 1 5 5 7 4 3 3 5 2 3 3 3 4 4 4 6 8 7 8 7 7 7 7 8 8 8 7 6 6 7 6 6 4 4 5 4 4 4 4
5 1 3 2 4 2 1 5 2 8 3 4 1 1 4 3 4 6 6 7 7 7 7 6 7 6 6 6 6 5 5 6 8 7 6 7 6 6 5 6 4 3 4 5
6 4 1 3 1 6 5 6 5 5 2 1 3 2 4 3 4 4 5 5 5 5 6 5 5 5 4 4 4 6 7 6 5 6 5 4 5 5 5 5 6 6 5 6
5 5 3 3 5 1 5 3 7 6 4 5 1 6 5 8 6 2 6 5 2 2 3 4 5 4 5 5 6 5 5 5 6 5 5 6 6 5 5 4 5 5 5 6
1 6 3 2 0 0 1 2 3 6 3 2 3 5 2 5 2 2 6 4 2 2 3 5 5 4 5 5 4 4 5 5 5 5 5 5 5 6 6 6 6 6 6 5
7 3 3 8 7 2 3 2 4 5 4 3 4 6 1 2 3 2 1 2 2 3 4 5 6 6 4 4 4 4 4 5 4 4 5 5 6 6 7 7 7 7 6 6
9 4 7 8 5 2 3 2 2 4 4 4 5 3 5 6 5 3 3 3 1 2 3 3 5 6 5 4 4 3 4 4 4 5 6 6 6 6 6 6 6 6 6 6
5 4 0 3 2 3 2 3 4 4 3 5 6 8 7 10 7 5 3 4 1 4 5 4 4 5 5 5 4 3 4 5 4 5 5 6 6 6 6 6 6 6 6 6
4 1 1 6 3 3 3 6 6 3 2 2 4 4 2 5 7 4 5 4 4 5 5 2 4 5 5 3 2 3 4 4 4 5 5 5 5 5 5 6 6 6 7 7
4 5 4 1 3 4 5 3 2 2 2 6 4 4 5 4 7 5 4 6 5 6 4 1 3 2 1 1 1 1 3 3 4 4 5 5 6 6 6 6 5 5 6 7
5 4 3 3 3 0 6 3 2 3 0 0 2 2 2 5 4 3 3 5 6 5 2 3 2 1 1 1 0 2 3 4 4 4 5 5 6 6 6 6 6 5 4 5
4 5 4 4 2 4 2 3 1 3 5 2 2 5 5 5 4 3 5 5 4 3 2 3 3 3 1 1 2 3 4 4 4 5 5 5 6 6 6 7 7 4 4 4
5 7 6 2 3 4 5 2 3 4 5 2 6 6 7 5 3 5 4 4 3 2 3 4 4 2 2 1 2 3 3 3 5 5 5 5 5 5 5 5 5 3 3 4
4 4 5 2 2 7 5 3 3 6 9 4 6 6 8 6 5 2 6 3 2 2 4 4 3 2 0 1 1 3 3 4 4 4 4 4 4 4 4 4 4 4 4 4
5 6 3 3 3 4 6 4 6 8 3 5 6 7 8 4 5 5 5 3 3 2 4 4 3 2 1 3 1 3 3 4 4 3 4 5 4 4 4 4 4 4 4 4
1 7 7 8 8 4 6 2 4 7 7 5 5 4 7 7 5 7 6 4 2 3 4 4 4 3 1 3 3 3 2 3 3 4 4 4 4 3 4 4 4 3 4 4
1 2 3 3 3 4 4 3 3 5 4 4 5 7 9 9 8 7 4 3 2 2 3 4 5 4 4 4 2 3 2 1 2 4 4 4 4 4 3 3 1 2 2 3
4 4 4 3 4 2 3 6 6 6 6 6 6 6 11 10 8 6 5 4 4 4 3 4 5 5 6 3 2 3 1 2 2 3 3 4 3 4 4 3 2 1 1 1
5 7 5 7 7 6 6 7 8 9 8 9 10 7 4 5 8 6 5 4 5 5 3 3 4 5 4 4 3 4 3 2 0 2 3 3 3 3 3 3 4 1 4 3
Wind_Direction
1 59 27 281 185 171 147 75 72 154 230 67 21 56 22 12 36 38 70 110 100 79 70 124 235 341 317 333 3 347 341 355 15 345 308 288 302 312 6 3 7 5 357 344
12 109 204 239 89 104 64 94 62 27 73 92 68 30 346 24 19 37 107 132 105 103 264 306 307 238 40 10 11 353 324 324 311 298 323 297 289 352 43 37 31 23 9 344
150 274 247 148 69 79 359 205 164 155 109 59 49 37 12 350 17 28 23 82 102 166 145 19 3 23 4 17 330 334 320 317 328 349 292 340 335 47 20 17 356 359 353 355
23 314 49 99 104 124 54 337 171 122 75 93 11 155 1 339 4 34 7 25 93 92 32 1 16 360 341 328 326 327 336 333 7 332 28 44 23 28 17 11 344 324 358 2
285 13 38 65 23 161 89 46 50 101 89 71 355 78 291 354 357 1 359 1 27 15 11 3 355 335 321 332 335 329 339 4 21 31 38 52 66 43 9 7 4 359 1 16
6 306 58 54 6 30 145 70 43 56 76 53 312 108 305 2 312 333 353 7 22 22 12 358 334 353 356 357 351 11 40 37 35 40 41 49 50 37 29 10 7 354 344 357
354 0 336 44 4 24 90 66 2 9 20 190 298 57 229 319 330 340 331 353 11 27 21 12 13 16 30 27 24 31 35 36 30 42 42 40 43 39 32 7 351 357 353 349
96 355 8 341 56 191 35 118 147 193 184 232 5 108 264 291 338 21 20 7 17 20 20 30 28 34 29 24 28 41 43 46 33 43 40 31 30 26 17 11 1 356 347 333
132 277 325 59 32 47 132 48 164 105 18 70 241 324 296 1 21 22 8 33 23 29 35 34 32 33 35 34 42 63 76 54 37 30 25 23 16 15 3 352 348 334 326 331
189 101 71 296 24 33 99 155 56 18 126 188 290 243 225 228 227 287 348 13 15 29 33 18 21 31 26 43 52 51 43 46 29 27 18 14 10 7 357 353 351 343 332 340
128 98 280 34 29 328 348 27 55 109 115 154 183 260 211 203 221 325 298 324 19 80 30 359 21 27 32 42 42 44 47 39 25 18 6 7 352 348 347 347 339 338 332 337
115 123 98 186 323 182 197 98 102 112 224 69 135 280 27 196 196 237 294 333 85 74 18 351 355 360 28 33 51 52 43 31 16 1 358 355 348 352 355 345 340 343 340 339
179 30 59 352 357 345 63 54 96 103 82 185 122 265 147 189 212 244 334 125 18 45 357 341 358 351 10 33 49 50 29 14 5 358 355 351 353 350 343 344 344 345 343 351
84 101 149 180 198 150 63 107 116 99 103 176 215 234 234 229 211 74 125 173 192 277 301 331 355 344 1 33 47 45 18 10 357 358 360 353 348 341 338 340 349 351 345 357
90 96 137 73 142 125 128 81 186 200 166 141 214 193 214 200 179 152 176 190 256 305 316 342 346 351 6 43 38 27 15 12 8 3 355 342 333 338 346 352 349 346 352 350
9 126 92 27 26 51 76 32 89 92 125 55 111 243 253 119 106 146 172 184 241 279 290 295 18 32 44 52 51 22 359 9 10 354 343 334 340 342 348 348 350 357 358 3
68 119 80 97 338 47 9 331 321 180 171 147 173 237 152 137 162 182 203 208 229 256 273 192 61 71 64 80 160 357 337 4 10 343 344 342 344 349 354 347 357 2 6 3
115 88 73 149 43 122 249 312 218 137 332 280 335 190 142 139 179 177 180 192 231 257 248 124 116 118 241 235 262 318 4 8 351 359 347 348 350 354 353 353 360 355 354 354
63 113 76 113 98 298 281 248 157 88 294 146 109 103 99 104 65 336 196 194 209 238 157 151 159 192 274 347 333 10 7 355 1 4 347 342 354 357 355 356 353 352 355 350
60 67 105 103 116 208 244 196 129 109 313 207 150 156 138 118 143 249 182 180 210 158 140 148 163 162 81 12 13 352 332 353 359 347 333 335 348 359 356 341 353 346 357 353
27 17 108 89 141 290 235 174 106 77 240 190 179 157 155 187 181 234 141 175 154 135 157 141 164 152 119 184 27 328 334 358 329 326 324 351 2 0 352 336 0 357 6 4
164 129 154 93 87 283 167 104 171 208 200 194 183 183 176 123 107 139 156 194 157 145 159 166 158 175 242 194 183 309 341 318 338 357 18 4 356 15 352 22 4 16 20 18
191 176 178 167 210 243 226 206 214 168 166 200 157 131 131 128 164 166 206 185 186 201 187 166 172 181 224 203 201 288 298 341 8 25 16 356 356 5 353 10 19 20 21 22
0 147 122 112 251 233 222 245 178 171 187 143 137 141 152 160 172 198 169 190 179 196 184 176 167 188 212 227 236 257 302 3 28 21 4 350 356 340 344 318 20 27 33 19
203 133 148 279 280 306 252 221 182 167 126 117 126 153 170 157 183 170 175 198 205 204 175 177 191 204 225 186 247 279 269 88 36 25 10 0 344 337 333 328 294 291 199 180
188 173 155 220 212 171 228 203 165 158 173 167 147 138 141 160 154 154 181 197 192 203 185 183 205 208 226 181 226 258 246 198 148 25 360 341 336 340 337 342 339 250 254 237